Regional Weather Roundup
Issued by NWS

Home | Current Version | Previous Version | Text Only | Print | Product List | Glossary On
Versions: 1 2 3 4 5 6 7 8 9 10 11 12 13 14 15 16 17 18 19 20 21 22 23 24 25 26 27 28 29 30 31 32 33 34 35 36 37 38 39 40 41 42 43 44 45 46 47 48 49 50
000
ASUS45 KCYS 182110
RWRWY

WYOMING REGIONAL WEATHER ROUNDUP
NATIONAL WEATHER SERVICE CHEYENNE WY
300 PM MDT MON JUN 18 2018

NOTE:  "FAIR" INDICATES FEW OR NO CLOUDS BELOW 12,000 FEET
WITH NO SIGNIFICANT WEATHER AND/OR OBSTRUCTIONS TO VISIBILITY.

WYZ001-182200-
YELLOWSTONE NATIONAL PARK

CITY           SKY/WX    TMP DP  RH WIND       PRES   REMARKS
LK YELLOWSTONE   N/A     38  36  92 CALM      30.21R
W YELLOWSTONE  NOT AVBL

$$
WYZ002>013-054>058-071-098>099-182200-
NORTHERN WYOMING

CITY           SKY/WX    TMP DP  RH WIND       PRES   REMARKS
JACKSON        LGT RAIN  50  43  77 VRB5      30.14R
CODY           LGT RAIN  61  44  53 SW16G28   30.02R
GREYBULL       FAIR      64  54  69 SE5       29.97R
WORLAND        FAIR      67  56  67 E13       29.96S
SHERIDAN       CLOUDY    64  53  67 SE17G31   29.99S
BUFFALO        CLOUDY    59  53  80 S16G24      N/A
GILLETTE       CLOUDY    61  53  75 SE10      30.04F
HULETT         CLOUDY    55  52  88 E18G24    30.11R
NEWCASTLE      CLOUDY    66  52  59 SE15      30.04F

$$
WYZ014>020-022>026-101>103-182200-
CENTRAL WYOMING

CITY           SKY/WX    TMP DP  RH WIND       PRES   REMARKS
BIG PINEY      PTSUNNY   58  40  51 SW17      30.14S
PINEDALE       MOCLDY    52  43  71 NE10      30.16F
DUBOIS         FAIR      45  37  76 N20       30.14R
LANDER         FAIR      66  41  40 W8        30.02R
RIVERTON       TSTM      61  53  75 CALM      30.02F
CASPER         CLOUDY    65  54  67 NE10      30.05R
DOUGLAS        CLOUDY    59  54  83 SE14      30.05S

$$
WYZ021-027>030-104>119-182200-
SOUTHERN WYOMING

CITY           SKY/WX    TMP DP  RH WIND       PRES   REMARKS
EVANSTON       PTSUNNY   63  40  42 W22G29    30.11F
KEMMERER       FAIR      59  34  38 SW23G30   30.13F
FORT BRIDGER   FAIR      65  37  34 W15G29    30.14S
ROCK SPRINGS   FAIR      60  38  43 NW26G37   30.11R
DIXON          FAIR      78  22  13 SW25G31   30.08S
RAWLINS        FAIR      74  29  19 SW25G32   30.07S
SARATOGA       FAIR      72  32  23 S18G26    30.10S
LARAMIE        PTSUNNY   77  36  22 SW22G30   30.09S
CHEYENNE       FAIR      73  56  54 S12G22    30.07F
TORRINGTON     FAIR      70  57  63 SE13      30.01F
PINE BLUFFS    FAIR      73  55  53 SE8       30.05S

$$



USA.gov is the U.S. government's official web portal to all federal, state and local government web resources and services.